This is the latest recevied weather packets stored in our database for station/object NO9B. If no packets are shown the sender has not sent any weather packets the latest 10 day(s).
| Time | Temp. | Humidity | Pressure | Rain* | Wind** | Luminosity | Snow |
|---|---|---|---|---|---|---|---|
| 1787409725 | 21.67° C | 73% | 1015.4 hPa | 0 mm | - | 31 W/m² | - |
| 1787409421 | 21.67° C | 71% | 1015.1 hPa | 0 mm | - | 30 W/m² | - |
| 1787409116 | 21.67° C | 72% | 1015.2 hPa | 0 mm | - | 28 W/m² | - |
| 1787408812 | 21.11° C | 73% | 1015.1 hPa | 0 mm | - | 27 W/m² | - |
| 1787408507 | 21.11° C | 72% | 1015.1 hPa | 0 mm | - | 26 W/m² | - |
| 1787408202 | 21.11° C | 76% | 1015 hPa | 0 mm | - | 25 W/m² | - |
| 1787407898 | 21.11° C | 76% | 1015.3 hPa | 0 mm | - | 24 W/m² | - |
| 1787407592 | 20.56° C | 77% | 1015.1 hPa | 0 mm | - | 23 W/m² | - |
| 1787407288 | 20.56° C | 77% | 1015.2 hPa | 0 mm | - | 23 W/m² | - |
| 1787406984 | 20.56° C | 77% | 1015.1 hPa | 0 mm | - | 22 W/m² | - |
| 1787406680 | 20° C | 78% | 1015.3 hPa | 0 mm | - | 21 W/m² | - |
| 1787406375 | 20° C | 81% | 1015.2 hPa | 0 mm | - | 20 W/m² | - |
| 1787406071 | 20° C | 83% | 1015 hPa | 0 mm | - | 20 W/m² | - |
| 1787405767 | 19.44° C | 83% | 1015.1 hPa | 0 mm | - | 19 W/m² | - |
| 1787405463 | 19.44° C | 85% | 1015.1 hPa | 0 mm | - | 18 W/m² | - |
| 1787405158 | 19.44° C | 86% | 1015.2 hPa | 0 mm | - | 18 W/m² | - |
| 1787404854 | 18.89° C | 88% | 1015.1 hPa | 0 mm | - | 17 W/m² | - |
| 1787404249 | 18.89° C | 88% | 1015.2 hPa | 0 mm | - | 17 W/m² | - |
| 1787403944 | 18.33° C | 89% | 1015.2 hPa | 0 mm | - | 16 W/m² | - |
| 1787403639 | 18.33° C | 90% | 1015.1 hPa | 0 mm | - | 16 W/m² | - |
| 1787403333 | 17.78° C | 90% | 1015 hPa | 0 mm | - | 15 W/m² | - |
| 1787403031 | 17.78° C | 91% | 1015.2 hPa | 0 mm | - | 14 W/m² | - |
| 1787402726 | 17.78° C | 92% | 1015.2 hPa | 0 mm | - | 14 W/m² | - |
| 1787402425 | 17.78° C | 93% | 1015 hPa | 0 mm | - | 14 W/m² | - |
| 1787402120 | 17.22° C | 93% | 1015.2 hPa | 0 mm | - | 13 W/m² | - |
* Rain latest hour (hover to see other rain measurements)
** Current wind speed in m/s (hover to see current wind gust speed)